This is the latest recevied weather packets stored in our database for station/object IT9CNT. If no packets are shown the sender has not sent any weather packets the latest 10 day(s).
| Time | Temp. | Humidity | Pressure | Rain* | Wind** | Luminosity | Snow |
|---|---|---|---|---|---|---|---|
| 1787561763 | 31.67° C | 63% | 1013.9 hPa | 0 mm | - | - | - |
| 1787561703 | 31.67° C | 63% | 1013.9 hPa | 0 mm | - | - | - |
| 1787561643 | 31.67° C | 63% | 1014.1 hPa | 0 mm | - | - | - |
| 1787561583 | 31.67° C | 63% | 1014.1 hPa | 0 mm | - | - | - |
| 1787561523 | 32.22° C | 63% | 1014.1 hPa | 0 mm | - | - | - |
| 1787561464 | 32.22° C | 64% | 1014 hPa | 0 mm | - | - | - |
| 1787561404 | 32.22° C | 65% | 1014 hPa | 0 mm | - | - | - |
| 1787561343 | 31.67° C | 65% | 1014 hPa | 0 mm | - | - | - |
| 1787561283 | 31.67° C | 65% | 1014.1 hPa | 0 mm | - | - | - |
| 1787561224 | 31.67° C | 66% | 1014 hPa | 0 mm | - | - | - |
| 1787561164 | 31.11° C | 66% | 1013.9 hPa | 0 mm | - | - | - |
| 1787561104 | 31.11° C | 65% | 1014.2 hPa | 0 mm | - | - | - |
| 1787561043 | 31.67° C | 65% | 1014 hPa | 0 mm | - | - | - |
| 1787560984 | 31.67° C | 66% | 1014.2 hPa | 0 mm | - | - | - |
| 1787560923 | 31.67° C | 66% | 1014.1 hPa | 0 mm | - | - | - |
| 1787560863 | 31.67° C | 66% | 1013.9 hPa | 0 mm | - | - | - |
| 1787560803 | 31.67° C | 66% | 1014.1 hPa | 0 mm | - | - | - |
| 1787560744 | 31.67° C | 65% | 1014.2 hPa | 0 mm | - | - | - |
| 1787560683 | 31.67° C | 65% | 1014.1 hPa | 0 mm | - | - | - |
| 1787560624 | 31.67° C | 66% | 1013.8 hPa | 0 mm | - | - | - |
| 1787560564 | 31.67° C | 66% | 1014.1 hPa | 0 mm | - | - | - |
| 1787560503 | 31.67° C | 67% | 1014.1 hPa | 0 mm | - | - | - |
| 1787560443 | 31.67° C | 67% | 1014.2 hPa | 0 mm | - | - | - |
| 1787560384 | 31.67° C | 67% | 1014 hPa | 0 mm | - | - | - |
| 1787560323 | 30.56° C | 68% | 1014.1 hPa | 0 mm | - | - | - |
* Rain latest hour (hover to see other rain measurements)
** Current wind speed in m/s (hover to see current wind gust speed)